Regional Weather Roundup
Issued by NWS

Home | Current Version | Previous Version | Text Only | Print | Product List | Glossary On
Versions: 1 2 3 4 5 6 7 8 9 10 11 12 13 14 15 16 17 18 19 20 21 22 23 24 25 26 27 28 29 30 31 32 33 34 35 36 37 38 39 40 41 42 43 44 45 46 47 48 49 50
000
ASUS44 KFWD 090015
RWRTX
NORTH TEXAS HOURLY WEATHER ROUNDUP
NATIONAL WEATHER SERVICE FORT WORTH TX
600 PM CST THU DEC 08 2016

NOTE: "FAIR" INDICATES FEW OR NO CLOUDS BELOW 12,000 FEET WITH NO
SIGNIFICANT WEATHER AND/OR OBSTRUCTIONS TO VISIBILITY.

TXZ118-119-090100-
DALLAS/FORT WORTH METROPLEX

CITY           SKY/WX    TMP DP  RH WIND       PRES   REMARKS
DFW AIRPORT    CLOUDY    36  14  40 N14       30.60S WCI  27
6HR MIN TEMP:  33; 6HR MAX TEMP:  36;

DALLAS LOVE    MOCLDY    37  15  40 N10       30.62R WCI  30
6HR MIN TEMP:  35; 6HR MAX TEMP:  37;

FTW MEACHAM    CLOUDY    36  12  37 N12       30.62R WCI  28
6HR MIN TEMP:  33; 6HR MAX TEMP:  36;

DAL-EXECUTIVE  CLOUDY    35  16  45 N13       30.60R WCI  26
6HR MIN TEMP:  34; 6HR MAX TEMP:  36;

FTW-ALLIANCE   CLOUDY    35  13  40 N10       30.61S WCI  27
6HR MIN TEMP:  33; 6HR MAX TEMP:  36;

FTW-NAS-JRB    MOCLDY    37  15  40 N14       30.63R WCI  28
6HR MIN TEMP:  34; 6HR MAX TEMP:  37;

FTW-SPINKS     CLOUDY    34  16  47 N12       30.63R WCI  25
ARLINGTON      CLOUDY    35  16  45 NW9       30.62R WCI  28
6HR MIN TEMP:  34; 6HR MAX TEMP:  36;

ADDISON        CLOUDY   N/A N/A N/A N12       30.61F
MESQUITE       CLOUDY    36  16  44 N9        30.62R WCI  29
LANCASTER      CLOUDY    37  16  42 N10       30.62R WCI  29
6HR MIN TEMP:  35; 6HR MAX TEMP:  37;

$$

TXZ091>094-102>105-117-120-121-131>134-090100-
NORTH CENTRAL TEXAS

CITY           SKY/WX    TMP DP  RH WIND       PRES   REMARKS
SHRMAN/DENISON CLEAR     33  15  47 N9        30.62S WCI  26
6HR MIN TEMP:  33; 6HR MAX TEMP:  38;

GAINESVILLE    PTCLDY    31  13  47 N6        30.63S WCI  25
6HR MIN TEMP:  31; 6HR MAX TEMP:  36;

BOWIE          CLEAR     31  16  52 NW6       30.62S WCI  26
6HR MIN TEMP:  31; 6HR MAX TEMP:  37;

BRIDGEPORT     CLOUDY    34  18  51 N7        30.64S WCI  28
6HR MIN TEMP:  32; 6HR MAX TEMP:  35;

DECATUR        PTCLDY    33  14  45 N3        30.61R
6HR MIN TEMP:  32; 6HR MAX TEMP:  35;

DENTON         CLOUDY    33  16  49 N5        30.62S WCI  29
6HR MIN TEMP:  32; 6HR MAX TEMP:  36;

MCKINNEY       MOCLDY    33  16  49 N8        30.60F WCI  26
6HR MIN TEMP:  32; 6HR MAX TEMP:  36;

BONHAM         CLEAR     32  12  43 N5        30.61F WCI  27
GREENVILLE       N/A     34  18  51 N7        30.61S WCI  28
ROCKWALL       CLOUDY    34  16  46 MISG      30.61S
6HR MIN TEMP:  33; 6HR MAX TEMP:  36;

TERRELL        CLOUDY    35  14  42 N12       30.61R WCI  27
6HR MIN TEMP:  34; 6HR MAX TEMP:  36;

WAXAHACHIE     CLOUDY    34  19  54 N13       30.62R WCI  25
6HR MIN TEMP:  33; 6HR MAX TEMP:  35;

CLEBURNE       MOCLDY    34  16  47 N14G23    30.62R WCI  24
GRANBURY       CLOUDY    35  18  48 N9        30.64S WCI  28
6HR MIN TEMP:  34; 6HR MAX TEMP:  36;

$$

TXZ083>090-098>101-113>116-127>130-139>142-154-155-090100-
WESTERN NORTH TEXAS

CITY           SKY/WX    TMP DP  RH WIND       PRES   REMARKS
WICHITA FALLS  PTCLDY    27  13  55 N8        30.64S WCI  19
6HR MIN TEMP:  27; 6HR MAX TEMP:  34;

WF-KICKAPOO    CLEAR     31  11  43 N6        30.66S WCI  25
6HR MIN TEMP:  31; 6HR MAX TEMP:  34;

VERNON         PTCLDY    31  11  43 N6        30.66R WCI  25
6HR MIN TEMP:  28; 6HR MAX TEMP:  56;

ABILENE        CLOUDY    30  18  60 N10       30.61S WCI  21
6HR MIN TEMP:  28; 6HR MAX TEMP:  30; 6HR PCP:  0.02;

ABILENE-DYESS  MOCLDY    29  18  62 N12       30.60S WCI  20
                                      6HR PCP: TRACE;

CISCO          CLOUDY    30  18  59 N8        30.60R WCI  23
BRECKENRIDGE   CLOUDY    33  15  48 N5        30.63R WCI  29
GRAHAM         CLOUDY    32  17  53 NW7       30.62R WCI  26
6HR MIN TEMP:  31; 6HR MAX TEMP:  35;

MINERAL WELLS  CLOUDY    33  14  45 N7        30.62R WCI  27
6HR MIN TEMP:  31; 6HR MAX TEMP:  35;

STEPHENVILLE   CLOUDY    32  18  55 N12G17    30.62R WCI  23
6HR MIN TEMP:  31; 6HR MAX TEMP:  33;

COMANCHE       CLOUDY    31  23  70 N9        30.61R WCI  23
6HR MIN TEMP:  31; 6HR MAX TEMP:  32;

BROWNWOOD      CLOUDY    32  18  55 N7        30.62R WCI  26
COLEMAN        CLOUDY    31  20  64 N12       30.60R WCI  22
6HR MIN TEMP:  29; 6HR MAX TEMP:  32;

$$

TXZ143>147-156>162-174-175-090100-
CENTRAL TEXAS

CITY           SKY/WX    TMP DP  RH WIND       PRES   REMARKS
WACO           CLOUDY    35  21  56 N15       30.61R WCI  25
6HR MIN TEMP:  35; 6HR MAX TEMP:  39;

WACO-MCGREGOR  CLOUDY    34  20  56 N15       30.61R WCI  24
6HR MIN TEMP:  34; 6HR MAX TEMP:  38;

HILLSBORO      CLOUDY    34  22  60 N9        30.60S WCI  27
6HR MIN TEMP:  34; 6HR MAX TEMP:  38;

CORSICANA      FLURRIES  36  19  50 N15       30.60S WCI  27
6HR MIN TEMP:  36; 6HR MAX TEMP:  39; 6HR PCP: TRACE;

MEXIA          CLOUDY    34  19  54 N13       30.57S WCI  25
6HR MIN TEMP:  34; 6HR MAX TEMP:  37;

HEARNE         CLOUDY    37  23  56 N13G20    30.58R WCI  29
6HR MIN TEMP:  37; 6HR MAX TEMP:  43;

CAMERON        CLOUDY    37  23  56 N13       30.58R WCI  29
6HR MIN TEMP:  37; 6HR MAX TEMP:  41;

TEMPLE         CLOUDY    35  21  56 MISG      30.59R
6HR MIN TEMP:  35; 6HR MAX TEMP:  39;

KILLEEN        CLOUDY    34  21  59 N15       30.57R WCI  24
6HR MIN TEMP:  34; 6HR MAX TEMP:  37;

KILLEEN-SKYLRK CLOUDY    35  21  56 N13       30.60R WCI  26
6HR MIN TEMP:  35; 6HR MAX TEMP:  38;

FORT HOOD      CLOUDY    34  20  56 N14       30.56R WCI  25
6HR MIN TEMP:  34; 6HR MAX TEMP:  37;

GATESVILLE     CLOUDY    34  21  60 N8        30.63R WCI  27
HAMILTON       CLOUDY    33  20  59 N13       30.60R WCI  24
6HR MIN TEMP:  33; 6HR MAX TEMP:  35;

LAMPASAS       CLOUDY    33  23  67 N9G16     30.58R WCI  25
6HR MIN TEMP:  33; 6HR MAX TEMP:  37;

$$

TXZ095>097-106>112-122>126-135>138-148>153-164>167-090100-
EAST TEXAS

CITY           SKY/WX    TMP DP  RH WIND       PRES   REMARKS
PARIS          CLOUDY    34  14  44 N9        30.60R WCI  26
6HR MIN TEMP:  34; 6HR MAX TEMP:  36;

SULPHUR SPRNGS CLOUDY    36  18  48 N9        30.62S WCI  29
6HR MIN TEMP:  35; 6HR MAX TEMP:  37;

MOUNT PLEASANT CLOUDY    36  14  40 N9        30.60R WCI  29
6HR MIN TEMP:  36; 6HR MAX TEMP:  39;

GILMER         CLOUDY    36  19  50 NW10      30.57R WCI  28
6HR MIN TEMP:  36; 6HR MAX TEMP:  40;

MINEOLA        MOCLDY    36  18  48 N7        30.59S WCI  30
TYLER          CLOUDY    36  19  50 N10       30.56R WCI  28
6HR MIN TEMP:  36; 6HR MAX TEMP:  40;

LONGVIEW       CLOUDY    38  23  55 N8        30.54S WCI  32
6HR MIN TEMP:  38; 6HR MAX TEMP:  43;

MARSHALL       CLOUDY    36  23  58 N9        30.57S WCI  29
6HR MIN TEMP:  36; 6HR MAX TEMP:  42;

ATHENS         CLOUDY    34  19  55 N13       30.57R WCI  25
PALESTINE      CLOUDY    36  25  64 N10       30.57S WCI  29
JACKSONVILLE   CLOUDY    36  26  66 N12G17    30.55R WCI  28
HENDERSON      CLOUDY    37  24  60 N8        30.56R WCI  30
6HR MIN TEMP:  37; 6HR MAX TEMP:  42;

CENTER         CLOUDY    42  28  55 N14G21    30.53R WCI  35
6HR MIN TEMP:  42; 6HR MAX TEMP:  44;

NACOGDOCHES    CLOUDY    41  28  60 N12G17    30.51R WCI  34
6HR MIN TEMP:  41; 6HR MAX TEMP:  43;

LUFKIN         CLOUDY    41  31  67 N6        30.51R WCI  37
6HR MIN TEMP:  41; 6HR MAX TEMP:  43;

$$

SUPPLEMENTAL OBSERVATIONS (CENTRAL)

CITY           SKY/WX    TMP DP  RH WIND       PRES   REMARKS
DENISON DAM      N/A     34  10  37 N8          N/A  WCI  27
CADDO GRASSLND   N/A     32  14  47 N2          N/A
PAT MAYSE LAKE   N/A     32  12  43 NW6         N/A  WCI  26
GREENVILLE       N/A     34  18  51 N5          N/A  WCI  30
CEDAR HILL       N/A     36  18  48 VRB7G17     N/A  WCI  30
ATHENS           N/A     36  19  51 VRB3        N/A
LAKE LIMESTONE   N/A     36  23  60 N10         N/A  WCI  28
MC1F1C2F2C3F3C4F4C5F5C6F6C7F7C8F8C9!



USA.gov is the U.S. government's official web portal to all federal, state and local government web resources and services.